ASTRA 1M

Last updated on Sat Aug 15 2026 00:02:57 GMT+0000 (Coordinated Universal Time)

1 33436U 08057A 26226.57178275 .00000105 00000+0 00000+0 0 9993 2 33436 0.4422 82.8872 0004038 63.7631 41.5603 1.00270261 46322
UTC large
Height (km)
Speed (km/s)
/
Latitude / Longitude
Inclination (degrees)
Orbital Period (minutes)
Azimuth
Elevation
Range (km)
Doppler Factor

Next 0 passes for location: London (51.5072 / 0.1276)

No passes found over London.
ASTRA 1M